Location: Ida Center
(41.8662°N, 83.5713°W)
Time: 03:06:19
(UTC+00:00)

IRS-1C Rocket - Pass Details

Date: 17 November 2019
Orbit: 800 x 806 km, 99.0° (Epoch: 11 December)

Event Time Altitude Azimuth Distance (km) Brightness Sun altitude
Rises 22:39:26 0° 159° (SSE) 3,306 7.3 -5.5°
Reaches altitude 10° 22:41:45 10° 157° (SSE) 2,380 6.5 -5.9°
Maximum altitude 22:47:00 74° 74° (ENE) 841 4.1 -6.9°
Drops below altitude 10° 22:52:17 10° 350° (N) 2,395 6.5 -7.8°
Sets 22:54:37 0° 348° (NNW) 3,330 7.2 -8.2°
